sat.trackr.live / text

‹ back to catalog

TDRS 11

NORAD 39070 · 2013-004A

PAYLOAD ACTIVE UNKNOWN

§ Identity

Operator
Country
US
Launch date
2013-01-31
Launch site
AFETR
Launch vehicle
Mass (kg)
RCS (m²)
25.12

Purposes: comms

External: N2YO · Heavens-Above · Gunter

§ Orbital elements

Epoch: 2026-09-19T22:21:51.427008Z

Period
1,436.12 min
Inclination
3.6655°
Eccentricity
0.0003260
Mean motion
1.00270108 rev/d
Perigee alt
35,773.3 km
Apogee alt
35,800.8 km
Semi-major
42,165.2 km
B*
0.0000e+0
RAAN
32.6383°
Arg perigee
42.3980°
Mean anomaly
84.8624°
Rev number
4,764

§ Raw data

TDRS 111 39070U 13004A   26262.93184522  .00000077  00000+0  00000+0 0  99912 39070   3.6655  32.6383 0003260  42.3980  84.8624  1.00270108 47640

JSON: /api/v1/satellites/39070 · /tle

For live sub-satellite position, see the globe view (requires WebGL).

§ Visibility from observer

Set your observer location to see the next 7 days of passes ≥ 10°. The values pass through the URL so the page stays shareable.

No JS? Fill the form by hand. The geolocation button needs JavaScript.